[[{"header":{"parameterUnit":"m.s-1","parameterCategory":1,"la1":30.2992,"la2":30.254,"lo1":-89.0895,"lo2":-89.0443,"dy":0.0025,"dx":0.0025,"nx":19,"ny":19,"refTime":"2026-03-21T09:00:00:Z","depth":0,"parameterNumber":2,"parameterNumberName":"U-component_of_WINDS"},"data":[0,0,0,1.3808,1.3811,1.3978,1.3979,1.4183,1.4185,0,0,0,0,0,0,0,0,0,0,0,1.3745,1.3746,1.3807,1.3811,1.3978,1.3979,1.4183,1.4185,0,0,0,0,0,0,0,0,0,0,0,1.3744,1.3745,1.3746,1.3812,1.3978,1.3979,1.4183,1.4062,0,0,0,0,0,0,0,0,0,0,1.3902,1.3828,1.3745,1.3746,1.3813,1.3977,1.3979,1.4056,1.4069,1.4101,0,1.4119,0,1.4155,1.4197,1.4198,0,0,0,1.3823,1.3817,1.3874,1.3747,1.3814,1.3977,1.3906,1.4064,1.4078,1.4119,1.4123,1.4131,1.4158,1.4198,1.4199,1.4332,1.4332,0,0,1.3814,1.3769,1.3864,1.3883,1.3848,1.39,1.3911,1.4073,1.4077,1.4123,1.4136,1.4162,1.42,1.4201,1.4332,1.4332,0,0,0,1.3779,1.3762,1.3815,1.3874,1.3904,1.3905,1.3917,1.407,1.409,1.4138,1.4164,1.4201,1.4203,1.4332,1.4332,1.4291,0,0,0,1.3774,1.3742,1.3811,1.3785,1.3901,1.3987,1.391,1.4079,1.4099,1.4163,1.4201,1.4205,1.4332,1.4332,1.4292,1.428,0,0,0,1.3739,1.3738,1.3757,1.3782,1.3852,1.3986,1.4016,1.4084,1.4114,1.4198,1.4205,1.4332,1.4332,1.4293,1.4281,1.4304,0,0,0,1.3689,1.3719,1.3755,1.38,1.385,1.3957,1.4016,1.4099,1.4166,1.4202,1.4332,1.4332,1.4293,1.4282,1.4304,1.4314,1.4313,0,0,1.3702,1.3719,1.3749,1.3786,1.3874,1.3935,1.4021,1.4127,1.4179,1.428,1.4284,1.4292,1.4282,1.4304,1.4323,1.4322,0,0,0,1.3738,1.3759,1.3792,1.3851,1.393,1.4,1.4097,1.4138,1.4225,1.4219,1.4306,1.4302,1.4317,1.4324,1.4323,1.4341,1.4333,1.4333,1.4333,1.3692,1.3754,1.381,1.3893,1.3951,1.4052,1.4108,1.4181,1.4228,1.4248,1.4279,1.4282,1.4289,1.4288,1.4306,1.4288,1.4288,1.4288,1.4288,1.3718,1.3759,1.3822,1.3897,1.3967,1.4034,1.4137,1.4169,1.4247,1.4263,1.428,1.4293,1.4285,1.4305,1.4286,1.4286,1.4286,1.4287,1.4287,1.3695,1.3726,1.3773,1.3868,1.3937,1.4024,1.4096,1.4157,1.4216,1.4232,1.4274,1.4275,1.4286,1.4247,1.4247,1.4247,1.4247,1.4247,1.4248,1.3653,1.3707,1.3757,1.3846,1.3895,1.3968,1.4075,1.4128,1.4203,1.4243,1.4244,1.4292,1.4271,1.4265,1.4248,1.4248,1.4248,1.4248,1.4248,1.3657,1.3667,1.3743,1.3792,1.3906,1.3974,1.4051,1.4155,1.4208,1.4243,1.4291,1.4263,1.4286,1.4288,1.4284,1.4273,1.4273,1.4273,1.4273,1.3639,1.3656,1.375,1.3826,1.3908,1.3987,1.4081,1.4168,1.426,1.4299,1.431,1.431,1.4308,1.4333,1.4333,1.4331,1.4332,1.4332,1.4332,1.3647,1.3676,1.3739,1.3824,1.392,1.4003,1.4095,1.4187,1.4294,1.4336,1.4332,1.433,1.4331,1.4326,1.4367,1.4366,1.4362,0,0]},{"header":{"parameterUnit":"m.s-1","parameterCategory":1,"la1":30.2992,"la2":30.254,"lo1":-89.0895,"lo2":-89.0443,"dy":0.0025,"dx":0.0025,"nx":19,"ny":19,"refTime":"2026-03-21T09:00:00:Z","depth":0,"parameterNumber":3,"parameterNumberName":"V-component_of_WINDS"},"data":[0,0,0,4.541,4.5414,4.5605,4.5606,4.5831,4.5832,0,0,0,0,0,0,0,0,0,0,0,4.5343,4.5344,4.541,4.5415,4.5605,4.5606,4.583,4.5832,0,0,0,0,0,0,0,0,0,0,0,4.5342,4.5344,4.5345,4.5415,4.5605,4.5606,4.583,4.5692,0,0,0,0,0,0,0,0,0,0,4.551,4.5437,4.5343,4.5345,4.5416,4.5605,4.5606,4.5686,4.5701,4.5736,0,4.5765,0,4.5803,4.5846,4.5847,0,0,0,4.5422,4.5424,4.5487,4.5345,4.5418,4.5605,4.5521,4.5695,4.5711,4.5756,4.5769,4.5777,4.5806,4.5848,4.5849,4.6032,4.6032,0,0,4.5412,4.537,4.5475,4.5497,4.5468,4.5515,4.5527,4.5705,4.5716,4.5769,4.5783,4.581,4.5849,4.5851,4.6031,4.6032,0,0,0,4.5376,4.5362,4.5421,4.5487,4.5523,4.5521,4.5534,4.5708,4.573,4.5786,4.5813,4.585,4.5853,4.6031,4.6032,4.6019,0,0,0,4.537,4.5342,4.5416,4.5392,4.552,4.5618,4.5533,4.5718,4.574,4.5811,4.585,4.5855,4.603,4.6031,4.6019,4.602,0,0,0,4.5334,4.5338,4.5362,4.539,4.5471,4.5616,4.5649,4.5724,4.5756,4.5847,4.5855,4.603,4.6031,4.6018,4.6019,4.6059,0,0,0,4.5282,4.5344,4.5361,4.5441,4.5469,4.5607,4.5649,4.5753,4.583,4.5851,4.6031,4.6032,4.6018,4.6018,4.6058,4.6087,4.6095,0,0,4.5337,4.5349,4.54,4.5421,4.5546,4.5581,4.5706,4.5813,4.5857,4.5971,4.5976,4.6019,4.6019,4.6059,4.6149,4.6155,0,0,0,4.5403,4.5439,4.5482,4.5555,4.5641,4.5716,4.581,4.5851,4.5951,4.5908,4.6045,4.6046,4.6071,4.6087,4.6092,4.6118,4.6037,4.6036,4.6036,4.542,4.5478,4.5567,4.565,4.572,4.582,4.5883,4.5955,4.5988,4.602,4.6054,4.6102,4.6119,4.6123,4.6149,4.6072,4.6072,4.6072,4.6072,4.5507,4.5569,4.5619,4.5723,4.5784,4.5872,4.5971,4.5993,4.6084,4.6079,4.6105,4.6096,4.6128,4.6154,4.6072,4.6072,4.6072,4.6072,4.6072,4.5525,4.5566,4.5617,4.5734,4.5817,4.5898,4.5985,4.6036,4.6085,4.611,4.6154,4.6154,4.6163,4.6127,4.6127,4.6128,4.6128,4.6128,4.6128,4.5524,4.5584,4.5652,4.5754,4.5811,4.5892,4.5996,4.6053,4.613,4.616,4.6161,4.6194,4.612,4.6101,4.6131,4.613,4.613,4.613,4.6129,4.5593,4.5588,4.5693,4.5751,4.5877,4.5959,4.6025,4.6139,4.6193,4.6235,4.6265,4.6201,4.6215,4.6212,4.6197,4.625,4.625,4.625,4.625,4.561,4.5624,4.5747,4.5837,4.5931,4.6004,4.6123,4.6207,4.6291,4.6329,4.6329,4.6313,4.6307,4.6326,4.632,4.6307,4.6387,4.6387,4.6387,4.5657,4.5684,4.5775,4.5862,4.5966,4.6054,4.617,4.6272,4.6365,4.6394,4.6361,4.6355,4.633,4.6319,4.6345,4.6334,4.6312,0,0]}]]